Tracking 30466 objects as of 17-May-2025
HD Live streaming from Space Station
objects crossing your sky now

THORAD AGENA D DEB

Track THORAD AGENA D DEB now!
10-day predictions


NORAD ID: 4977
Int'l Code: 1970-025GX
Perigee: 1,055.2 km
Apogee: 1,086.1 km
Inclination: 100.1 °
Period: 106.5 minutes
Semi major axis: 7441 km
RCS: 0.0367 m2 (small)
Launch date: April 8, 1970
Source: United States (US)
Launch site: AIR FORCE WESTERN TEST RANGE (AFWTR)

Note: This is SATELLITE DEBRIS
Your satellite tracking list
Your tracking list is empty




NASA's NSSDC Master Catalog

Two Line Element Set (TLE):
1 04977U 70025GX  25136.86631542  .00000071  00000-0  17809-3 0  9999
2 04977 100.0938 266.5476 0020723 149.6721 333.9882 13.52378258716408
Source of the keplerian elements: AFSPC